Weather History for Alexandria, Egypt

Change the Weather History Date:

Thursday, July 4, 2013

  Actual Average Record
Temperature  
Mean Temperature 79 °F -  
Max Temperature 85 °F 84 °F 89 °F (1998)
Min Temperature 73 °F 73 °F 71 °F (1996)
Cooling Degree Days 14    
Growing Degree Days 29 (Base 50)    
Moisture  
Dew Point 69 °F    
Average Humidity 72    
Maximum Humidity 83    
Minimum Humidity 50    
Precipitation  
Precipitation 0.00 in 0.00 in - ()
Sea Level Pressure  
Sea Level Pressure 29.79 in    
Wind  
Wind Speed 8 mph ()    
Max Wind Speed 15 mph    
Max Gust Speed -    
Visibility 6.2 miles    
Events      
Averages and records for this station are not official NWS values.
T = Trace of Precipitation, MM = Missing Value Source: Averaged Metar Reports

Daily Weather History Graph

Daily Weather History Graph

Search for Another Location

Airport:

Trip Planner

Search our weather history database for the weather conditions in past years. The results will help you decide how hot, cold, wet, or windy it might be!

Date:

Astronomy

Jul. 04, 2013 Rise Set
Actual Time 5:01 AM EET 7:08 PM EET
Civil Twilight 4:33 AM EET 7:35 PM EET
Nautical Twilight 3:59 AM EET 8:09 PM EET
Astronomical Twilight 3:23 AM EET 8:45 PM EET
Moon 1:58 AM EET (7/4) 3:59 PM EET (7/4)
Length of Visible Light 15h 02m
Length of Day
14h 07m
Waning Crescent, 13% of the Moon is Illuminated
Jul 4
Waning Crescent
Jul 8
New
Jul 16
First Quarter
Jul 22
Full
Jul 29
Last Quarter

Hourly Weather History & Observations

Time (EET) Temp. Heat Index Dew Point Humidity Pressure Visibility Wind Dir Wind Speed Gust Speed Precip Events Conditions
12:00 AM 75.2 °F - 69.8 °F 83% 29.77 in 6.2 mi NW 6.9 mph - N/A   Partly Cloudy
1:00 AM 75.2 °F - 69.8 °F 83% 29.77 in 6.2 mi NW 6.9 mph - N/A   Partly Cloudy
2:00 AM 75 °F - 69 °F 75% 29.78 in 6 mi NNW 9.2 mph - -   Scattered Clouds
3:00 AM 75.2 °F - 68.0 °F 78% 29.77 in 6.2 mi NW 6.9 mph - N/A   Partly Cloudy
4:00 AM 75.2 °F - 68.0 °F 78% 29.77 in 6.2 mi NNW 9.2 mph - N/A   Partly Cloudy
5:00 AM 73.4 °F - 68.0 °F 83% 29.77 in 6.2 mi NW 6.9 mph - N/A   Partly Cloudy
6:00 AM 75.2 °F - 68.0 °F 78% 29.77 in 6.2 mi NW 9.2 mph - N/A   Partly Cloudy
7:00 AM 77.0 °F - 68.0 °F 74% 29.80 in 6.2 mi NW 6.9 mph - N/A   Scattered Clouds
8:00 AM 79 °F - 69 °F 64% 29.81 in 6 mi NW 6.9 mph - -   Partly Cloudy
8:00 AM 78.8 °F - 69.8 °F 74% 29.80 in 6.2 mi NW 6.9 mph - N/A   Scattered Clouds
9:00 AM 78.8 °F - 68.0 °F 69% 29.80 in 6.2 mi North 9.2 mph - N/A   Scattered Clouds
10:00 AM 82.4 °F 86.3 °F 69.8 °F 66% 29.80 in 6.2 mi NNW 10.4 mph - N/A   Scattered Clouds
11:00 AM 82.4 °F 86.3 °F 69.8 °F 66% 29.80 in 6.2 mi NW 9.2 mph - N/A   Scattered Clouds
12:00 PM 82.4 °F 86.3 °F 69.8 °F 66% 29.80 in 6.2 mi NW 10.4 mph - N/A   Scattered Clouds
1:00 PM 82.4 °F 86.3 °F 69.8 °F 66% 29.80 in 6.2 mi NNW 9.2 mph - N/A   Partly Cloudy
2:00 PM 85 °F - 69 °F 50% 29.81 in 6 mi NNW 13.8 mph - -   Scattered Clouds
2:00 PM 84.2 °F 88.4 °F 69.8 °F 62% 29.80 in 6.2 mi NNW 9.2 mph - N/A   Partly Cloudy
3:00 PM 84.2 °F 88.4 °F 69.8 °F 62% 29.80 in 6.2 mi NW 15.0 mph - N/A   Partly Cloudy
4:00 PM 82.4 °F 86.3 °F 69.8 °F 66% 29.77 in 6.2 mi NW 15.0 mph - N/A   Scattered Clouds
5:00 PM 82.4 °F 86.3 °F 69.8 °F 66% 29.77 in 6.2 mi North 15.0 mph - N/A   Scattered Clouds
6:00 PM 80.6 °F 83.9 °F 69.8 °F 70% 29.77 in 6.2 mi NNW 13.8 mph - N/A   Partly Cloudy
7:00 PM 77.0 °F - 69.8 °F 78% 29.80 in 6.2 mi North 9.2 mph - N/A   Partly Cloudy
8:00 PM 77 °F - 69 °F 71% 29.81 in 6 mi North 11.5 mph - -   Scattered Clouds
8:00 PM 77.0 °F - 69.8 °F 78% 29.80 in 6.2 mi North 11.5 mph - N/A   Partly Cloudy
9:00 PM 77.0 °F - 69.8 °F 78% 29.83 in - North 10.4 mph - N/A   Clear
10:00 PM 75.2 °F - 68.0 °F 78% 29.83 in - NNW 9.2 mph - N/A   Clear
11:00 PM 75.2 °F - 68.0 °F 78% 29.83 in - NNW 12.7 mph - N/A   Clear